{"data":{"norad_id":68815,"epoch":"2026-05-25T02:38:36.373344Z","epoch_age_seconds":76005,"freshness":"FRESH","line1":"1 68815U 26089P   26145.11014321  .00180163  00000+0  11836-2 0  9993","line2":"2 68815  97.2835 351.7679 0001861  72.6860 287.4608 15.75186873  5064","mean_motion":15.75186873,"eccentricity":0.0001861,"inclination_deg":97.2835,"raan_deg":351.7679,"arg_perigee_deg":72.686,"mean_anomaly_deg":287.4608,"bstar":0.0011836,"rev_number":506,"period_min":91.417724759061,"perigee_km":342.84845694719,"apogee_km":345.35047335952,"semimajor_km":6722.2364651534,"source":"CELESTRAK","updated_at":"2026-05-25T13:38:22.042749Z"}}